DELTA 1 R/B

Satellite information

Favourite Embed

Satellite Type and Status

ROCKET BODYIN ORBIT

Key statistics

Satellite DELTA 1 R/B at a glance.

Uptime

19455

Days in orbit

Revolutions

≈ 14.9

Per day

Orbit

SSO

Sun Synchronous Orbit

Inclination

98.5

Latest

Satellite identification and parameters

Extended collection of information and parameters for DELTA 1 R/B.

Object identification

Identified? True

Debris? False

Object name: DELTA 1 R/B

International designator: 1972-058B

Object number (NORAD): 6127

Object ID (CCSDS): 6127

Country: UNITED STATES OF AMERICA (US)

Current information (Y/N): Y

RCS size: LARGE

Orbital parameters

Period: 96.909 minutes

Inclination: 98.4921 deg

SMA: 6988.795 km

Apoapsis: 670.616 km

Periapsis: 550.704 km

RAAN: 145.42 deg

Eccentricy: 0.00857883

Argument of periapsis: 321.6851 deg

Mean anomaly: 37.8287 deg

Mean motion: 14.85933278 rev/day

Mean motion (dot): 0.00004002 rev/day2

B* drag term: 0.00043647073 1/REarth

Two-line elements (TLE)

Creation date: Oct. 28, 2025, 2:18 a.m.

Reference frame: TEME

Reference center: EARTH

Epoch: Oct. 27, 2025, 9:55 p.m. UTC

TLE line 0: 0 DELTA 1 R/B

TLE line 1: 1 06127U 72058B 25300.91374829 .00004002 00000-0 43647-3 0 9994

TLE line 2: 2 06127 98.4921 145.4200 0085788 321.6851 37.8287 14.85933278665270

Live tracking on map

Real-time ground track for satellite DELTA 1 R/B.

In-orbit conjunctions

A list of the most updated potential collisions computed for object DELTA 1 R/B.

Target Orbit TCA Probability of collision Miss distance Type
CZ-4B R/B SSO 2025-01-25 14:51:09 0.0001955353 471.0 (m) ROCKET BODY

Associated space launch

Earth observation satellite

DELTA 1 R/B was lifted into orbit during the mission ‘Delta 0900 | Landsat 1’, on board a Delta 0900 space rocket.

The launch took place on July 23, 1972, 6:06 p.m. from Space Launch Complex 2W.

For more information about the launch, click the button.

Launch to space Delta 0900 | Landsat 1
Delta 0900 | Landsat 1

Agency: N/A

Status: Launch Successful

Launch date: July 23, 1972, 6:06 p.m. UTC

Rocket: Delta 0900

Launch pad: Space Launch Complex 2W

Location: Vandenberg SFB, CA, USA

...

Latest news about this satellite

There are no fresh news available about this satellite. Check back as we update our databases every day.


Newsletter sign-up

Weekly statistics, charts and insights to help you stay on top of the space industry.